Location: Brantford
(43.1330°N, 80.2670°W)
Time: 19:08:34
(UTC-05:00)

Tiros 1 despin weight - Visible Passes

Search period start: 22 November 2019 00:00
Search period end: 02 December 2019 00:00
Orbit: 594 x 642 km, 48.2° (Epoch: 22 November)

Date Brightness Start Highest point End Pass type
(mag) Time Alt. Az. Time Alt. Az. Time Alt. Az.
22 Nov ? 18:18:32 10° WNW 18:22:40 38° SW 18:26:52 10° SSE visible
23 Nov ? 18:35:37 10° W 18:38:59 21° SW 18:42:23 10° S visible
24 Nov ? 18:54:07 10° WSW 18:55:11 11° SW 18:56:14 10° SW visible
25 Nov ? 17:26:53 10° W 17:30:45 29° SW 17:34:40 10° SSE visible
26 Nov ? 17:44:17 10° W 17:47:01 16° SW 17:49:46 10° S visible
